Location: Halvern
(37.6252°N, 122.0525°W)
Time: 20:32:06
(UTC+00:00)

ACS3 Solar Sail - Visible Passes

Search period start: 14 July 2024 00:00
Search period end: 24 July 2024 00:00
Orbit: 992 x 1023 km, 97.4° (Epoch: 13 July)

Date Brightness Start Highest point End Pass type
(mag) Time Alt. Az. Time Alt. Az. Time Alt. Az.
14 Jul 6.1 04:10:52 10° ESE 04:15:40 24° ENE 04:20:29 10° NNE visible
14 Jul 5.5 05:55:54 25° SSW 05:59:23 50° W 06:05:25 10° NNW visible
15 Jul 5.3 04:45:22 18° SE 04:49:46 46° ENE 04:55:39 10° N visible
15 Jul 6.5 06:30:43 17° SW 06:34:01 25° W 06:39:03 10° NW visible
16 Jul 4.8 05:20:12 25° SSE 05:24:03 88° ENE 05:30:19 10° N visible
16 Jul 7.2 07:06:45 10° WSW 07:08:53 12° W 07:11:01 10° WNW visible
17 Jul 6.1 04:09:54 10° ESE 04:14:47 25° ENE 04:19:40 10° NNE visible
17 Jul 5.5 05:55:01 24° SSW 05:58:31 48° W 06:04:31 10° NNW visible
18 Jul 5.2 04:44:29 18° SE 04:48:52 47° ENE 04:54:49 10° N visible
18 Jul 6.5 06:29:50 16° SW 06:33:11 24° W 06:38:08 10° NW visible
19 Jul 4.8 05:19:19 25° SSE 05:23:11 90° NNW 05:29:27 10° NNW visible
19 Jul 7.2 07:06:13 10° WSW 07:08:02 11° W 07:09:53 10° WNW visible
20 Jul 6.0 04:08:56 10° ESE 04:13:53 26° ENE 04:18:52 10° NNE visible
20 Jul 5.6 05:54:09 24° SSW 05:57:39 47° W 06:03:38 10° NNW visible
21 Jul 5.2 04:43:37 18° SE 04:48:00 49° ENE 04:53:58 10° N visible
21 Jul 6.6 06:28:58 15° SW 06:32:20 24° W 06:37:12 10° NW visible
22 Jul 4.8 05:18:27 25° SSE 05:22:18 87° WSW 05:28:35 10° NNW visible
22 Jul 7.2 07:05:46 10° W 07:07:12 11° W 07:08:39 10° WNW visible
23 Jul 6.0 04:07:58 10° ESE 04:13:00 27° ENE 04:18:03 10° NNE visible
23 Jul 5.6 05:53:17 23° SSW 05:56:47 45° W 06:02:45 10° NNW visible
